When you browse on this site, cookies collect data to enhance your experience and personalize the content and advertising you see.
Visit our Privacy Policy to learn more. By continuing to use the site, you agree to this use of cookies and data.
  • In Portugal
  • List of Countries
  • For 7 days
  • Water Temperature
  • Weather Map
  • Weather Widgets
  • user-avatar
    Login

    Hourly Weather Burdeki

    Today, 26 May, Tuesday

    Time Temperature Precipitation Wind Pressure Humidity
    00:00 +12°C° 0 mm 1 mps 695 mmHg 79%
    01:00 +12°C° 0 mm 1 mps 695 mmHg 78%
    02:00 +12°C° 0 mm 2 mps 696 mmHg 77%
    03:00 +12°C° 0 mm 1 mps 696 mmHg 78%
    04:00 +13°C° 0 mm 1 mps 696 mmHg 74%
    05:00 +14°C° 0 mm 1 mps 697 mmHg 70%
    06:00 +14°C° 0 mm 0 mps 698 mmHg 66%
    07:00 +18°C° 0 mm 1 mps 698 mmHg 63%
    08:00 +19°C° 0 mm 1 mps 699 mmHg 60%
    09:00 +20°C° 0 mm 2 mps 699 mmHg 56%
    10:00 +20°C° 0 mm 2 mps 699 mmHg 56%
    11:00 +21°C° 0 mm 3 mps 700 mmHg 57%
    12:00 +21°C° 0 mm 3 mps 700 mmHg 57%
    13:00 +21°C° 0 mm 3 mps 700 mmHg 60%
    14:00 +21°C° 0 mm 3 mps 700 mmHg 62%
    15:00 +20°C° 0 mm 2 mps 701 mmHg 64%
    16:00 +20°C° 0 mm 2 mps 701 mmHg 66%
    17:00 +20°C° 0 mm 1 mps 701 mmHg 68%
    18:00 +20°C° 0 mm 1 mps 701 mmHg 70%
    19:00 +19°C° 0 mm 1 mps 701 mmHg 74%
    20:00 +16°C° 0 mm 1 mps 701 mmHg 77%
    21:00 +15°C° 0 mm 1 mps 702 mmHg 81%
    22:00 +15°C° 0 mm 1 mps 702 mmHg 81%
    23:00 +14°C° 0 mm 1 mps 702 mmHg 81%

    Tomorrow, 27 May, Wednesday

    Time Temperature Precipitation Wind Pressure Humidity
    00:00 +14°C° 0 mm 1 mps 702 mmHg 81%
    01:00 +13°C° 0 mm 1 mps 701 mmHg 80%
    02:00 +13°C° 0 mm 1 mps 701 mmHg 80%
    03:00 +13°C° 0 mm 1 mps 701 mmHg 79%
    04:00 +14°C° 0 mm 1 mps 702 mmHg 76%
    05:00 +15°C° 0 mm 1 mps 702 mmHg 74%
    06:00 +16°C° 0 mm 1 mps 702 mmHg 71%
    07:00 +18°C° 0 mm 1 mps 703 mmHg 68%
    08:00 +19°C° 0 mm 2 mps 703 mmHg 65%
    09:00 +20°C° 0 mm 3 mps 703 mmHg 61%
    10:00 +21°C° 0 mm 3 mps 703 mmHg 61%
    11:00 +21°C° 0 mm 3 mps 702 mmHg 60%
    12:00 +22°C° 0 mm 4 mps 702 mmHg 59%
    13:00 +22°C° 0 mm 4 mps 702 mmHg 60%
    14:00 +22°C° 0 mm 4 mps 702 mmHg 61%
    15:00 +22°C° 0 mm 4 mps 702 mmHg 62%
    16:00 +21°C° 0 mm 3 mps 701 mmHg 65%
    17:00 +20°C° 0 mm 2 mps 701 mmHg 69%
    18:00 +19°C° 0 mm 2 mps 701 mmHg 73%
    19:00 +19°C° 0 mm 1 mps 701 mmHg 76%
    20:00 +18°C° 0 mm 1 mps 701 mmHg 79%
    21:00 +15°C° 0 mm 1 mps 701 mmHg 82%
    22:00 +15°C° 0 mm 1 mps 700 mmHg 81%
    23:00 +15°C° 0 mm 1 mps 700 mmHg 79%

    Day after tomorrow, 28 May, Thursday

    Time Temperature Precipitation Wind Pressure Humidity
    00:00 +15°C° 0 mm 1 mps 700 mmHg 78%
    01:00 +15°C° 0 mm 1 mps 699 mmHg 75%
    02:00 +14°C° 0 mm 1 mps 699 mmHg 73%
    03:00 +14°C° 0 mm 1 mps 699 mmHg 70%
    04:00 +16°C° 0 mm 1 mps 699 mmHg 68%
    05:00 +18°C° 0 mm 1 mps 699 mmHg 65%
    06:00 +19°C° 0 mm 1 mps 699 mmHg 63%
    07:00 +21°C° 0 mm 1 mps 699 mmHg 59%
    08:00 +21°C° 0 mm 2 mps 699 mmHg 54%
    09:00 +24°C° 0 mm 2 mps 699 mmHg 50%
    10:00 +25°C° 0 mm 2 mps 699 mmHg 50%
    11:00 +25°C° 0 mm 3 mps 699 mmHg 51%
    12:00 +26°C° 0 mm 3 mps 699 mmHg 51%
    13:00 +26°C° 0 mm 3 mps 698 mmHg 52%
    14:00 +26°C° 0 mm 3 mps 698 mmHg 53%
    15:00 +25°C° 0 mm 2 mps 698 mmHg 54%
    16:00 +24°C° 0 mm 2 mps 697 mmHg 59%
    17:00 +23°C° 0 mm 1 mps 697 mmHg 64%
    18:00 +23°C° 0 mm 1 mps 697 mmHg 68%
    19:00 +21°C° 0 mm 1 mps 697 mmHg 71%
    20:00 +20°C° 0 mm 1 mps 696 mmHg 73%
    21:00 +18°C° 0 mm 1 mps 696 mmHg 75%
    22:00 +18°C° 0 mm 1 mps 696 mmHg 74%
    23:00 +18°C° 0 mm 1 mps 696 mmHg 73%

    29 May, Friday

    Time Temperature Precipitation Wind Pressure Humidity
    00:00 +18°C° 0 mm 1 mps 695 mmHg 71%
    01:00 +18°C° 0 mm 1 mps 695 mmHg 67%
    02:00 +18°C° 0 mm 1 mps 695 mmHg 63%
    03:00 +16°C° 0 mm 1 mps 694 mmHg 59%
    04:00 +19°C° 0 mm 1 mps 695 mmHg 57%
    05:00 +20°C° 0 mm 1 mps 695 mmHg 55%
    06:00 +21°C° 0 mm 1 mps 695 mmHg 53%
    07:00 +23°C° 0 mm 1 mps 695 mmHg 49%
    08:00 +25°C° 0 mm 2 mps 695 mmHg 45%
    09:00 +27°C° 0 mm 2 mps 695 mmHg 42%
    10:00 +28°C° 0 mm 2 mps 695 mmHg 42%
    11:00 +28°C° 0 mm 2 mps 695 mmHg 42%
    12:00 +29°C° 0 mm 2 mps 695 mmHg 42%
    13:00 +28°C° 0 mm 2 mps 694 mmHg 45%
    14:00 +28°C° 0 mm 2 mps 694 mmHg 48%
    15:00 +27°C° 0 mm 2 mps 693 mmHg 51%
    16:00 +26°C° 0 mm 2 mps 693 mmHg 56%
    17:00 +25°C° 0 mm 1 mps 692 mmHg 61%
    18:00 +24°C° 0 mm 1 mps 692 mmHg 66%
    19:00 +23°C° 0 mm 1 mps 691 mmHg 65%
    20:00 +22°C° 0 mm 1 mps 691 mmHg 63%
    21:00 +20°C° 0 mm 2 mps 691 mmHg 61%
    22:00 +20°C° 0 mm 2 mps 691 mmHg 59%
    23:00 +20°C° 0 mm 2 mps 690 mmHg 57%

    30 May, Saturday

    Time Temperature Precipitation Wind Pressure Humidity
    00:00 +19°C° 0 mm 2 mps 690 mmHg 55%
    01:00 +19°C° 0 mm 2 mps 690 mmHg 58%
    02:00 +18°C° 0 mm 2 mps 690 mmHg 61%
    03:00 +18°C° 0 mm 1 mps 690 mmHg 64%
    04:00 +19°C° 0 mm 1 mps 690 mmHg 63%
    05:00 +20°C° 0 mm 1 mps 691 mmHg 63%
    06:00 +22°C° 0 mm 1 mps 692 mmHg 62%
    07:00 +23°C° 0 mm 2 mps 692 mmHg 60%
    08:00 +24°C° 0 mm 3 mps 693 mmHg 58%
    09:00 +25°C° 0 mm 4 mps 693 mmHg 56%
    10:00 +23°C° 0.1 mm 4 mps 694 mmHg 61%
    11:00 +23°C° 0.1 mm 4 mps 694 mmHg 66%
    12:00 +22°C° 0.1 mm 5 mps 695 mmHg 70%
    13:00 +21°C° 0.1 mm 5 mps 695 mmHg 71%
    14:00 +21°C° 0.1 mm 4 mps 695 mmHg 72%
    15:00 +20°C° 0.1 mm 4 mps 695 mmHg 73%
    16:00 +20°C° 0 mm 3 mps 695 mmHg 73%
    17:00 +19°C° 0 mm 3 mps 696 mmHg 74%
    18:00 +19°C° 0 mm 2 mps 696 mmHg 75%
    19:00 +18°C° 0 mm 2 mps 696 mmHg 77%
    20:00 +18°C° 0 mm 1 mps 697 mmHg 80%
    21:00 +16°C° 0 mm 1 mps 697 mmHg 82%
    22:00 +15°C° 0 mm 1 mps 697 mmHg 81%
    23:00 +15°C° 0 mm 1 mps 697 mmHg 80%

    31 May, Sunday

    Time Temperature Precipitation Wind Pressure Humidity
    00:00 +14°C° 0 mm 1 mps 697 mmHg 80%
    01:00 +14°C° 0 mm 1 mps 697 mmHg 80%
    02:00 +14°C° 0 mm 1 mps 698 mmHg 80%
    03:00 +14°C° 0 mm 1 mps 698 mmHg 80%
    04:00 +14°C° 0 mm 2 mps 698 mmHg 78%
    05:00 +15°C° 0 mm 2 mps 699 mmHg 76%
    06:00 +16°C° 0 mm 2 mps 699 mmHg 73%
    07:00 +17°C° 0 mm 2 mps 699 mmHg 71%
    08:00 +17°C° 0 mm 2 mps 699 mmHg 69%
    09:00 +18°C° 0 mm 3 mps 700 mmHg 66%
    10:00 +18°C° 0 mm 3 mps 700 mmHg 65%
    11:00 +19°C° 0 mm 3 mps 699 mmHg 64%
    12:00 +19°C° 0 mm 4 mps 699 mmHg 63%
    13:00 +19°C° 0 mm 3 mps 699 mmHg 62%
    14:00 +19°C° 0 mm 3 mps 699 mmHg 62%
    15:00 +20°C° 0 mm 3 mps 699 mmHg 62%
    16:00 +19°C° 0 mm 3 mps 698 mmHg 65%
    17:00 +18°C° 0 mm 2 mps 698 mmHg 68%
    18:00 +17°C° 0 mm 2 mps 698 mmHg 70%
    19:00 +16°C° 0 mm 1 mps 698 mmHg 74%
    20:00 +15°C° 0 mm 1 mps 698 mmHg 78%
    21:00 +13°C° 0 mm 1 mps 698 mmHg 82%
    22:00 +14°C° 0 mm 1 mps 698 mmHg 82%
    23:00 +14°C° 0 mm 1 mps 697 mmHg 82%
    Show more